Location: Unspecified
(0.0000°N, 0.0000°E)
Time: 00:03:24
(UTC+00:00)

ATLAS 5 CENTAUR R/B DEB - Pass Details

Date: 02 May 2025
Orbit: 8950 x 34203 km, 12.6° (Epoch: 13 May)

Event Time Altitude Azimuth Distance (km) Brightness Sun altitude
Rises 18:12:13 0° 267° (W) 22,637 ? -3.7°
Reaches altitude 10° 18:43:40 10° 271° (W) 25,133 ? -11.2°
Maximum altitude 05:12:05 75° 192° (SSW) 9,527 ? -10.8°
Drops below altitude 10° 06:07:28 10° 103° (ESE) 14,758 ? 2.5°
Sets 06:22:37 0° 100° (E) 17,365 ? 6.2°
